Terminal Aerodrome Forecast
Issued by NWS

Current Version | Previous Version | Text Only | Print | Product List | Glossary On
Versions: 1 2 3 4 5 6 7 8 9 10 11 12 13 14 15 16 17 18 19
000
FTUS42 KMLB 222300
TAFSFB
TAF
KSFB 222324Z 2300/2324 17004KT P6SM VCSH SCT030 BKN080 OVC110
      TEMPO 2300/2302 6SM -SHRA BKN025 BKN040
     FM230400 VRB03KT P6SM FEW030 SCT120 BKN250
     FM231400 VRB02KT P6SM FEW005 BKN100 BKN250
     FM232000 13006KT P6SM VCTS FEW025 SCT040CB BKN150=

USA.gov is the U.S. government's official web portal to all federal, state and local government web resources and services.